AT784 Weather Reports


Display with metric or nautical units.
time (UTC)temp
F
wind
direction
speed
MPH
gust
MPH
rain 1hr
in
rain 24hr
in
rain mn
in
humidity
%
barometer
mb
20260503203703 50 197 7.0 18.0 0.00 0.00 0.00 75 1008.3
20260503203604 50 194 6.0 18.0 0.00 0.00 0.00 76 1008.2
20260503203503 50 195 6.0 18.0 0.00 0.00 0.00 75 1008.3
20260503203404 50 194 6.0 18.0 0.00 0.00 0.00 76 1008.3
20260503203303 50 196 6.0 18.0 0.00 0.00 0.00 75 1008.2
20260503203203 50 197 6.0 18.0 0.00 0.00 0.00 75 1008.2
20260503203124 50 200 6.0 18.0 0.00 0.00 0.00 75 1008.3
20260503203003 50 200 6.0 18.0 0.00 0.00 0.00 75 1008.2
20260503202904 50 200 6.0 18.0 0.00 0.00 0.00 76 1008.2
20260503202803 50 203 6.0 18.0 0.00 0.00 0.00 75 1008.2
20260503202703 50 200 6.0 18.0 0.00 0.00 0.00 76 1008.2
20260503202603 50 200 6.0 18.0 0.00 0.00 0.00 76 1008.3
20260503202503 50 199 7.0 18.0 0.00 0.00 0.00 75 1008.3
20260503202403 50 200 6.0 18.0 0.00 0.00 0.00 75 1008.3
20260503202304 50 204 6.0 18.0 0.00 0.00 0.00 75 1008.2
20260503202224 50 206 6.0 18.0 0.00 0.00 0.00 75 1008.2
20260503202103 50 208 6.0 17.0 0.00 0.00 0.00 75 1008.3
20260503202003 50 211 6.0 20.0 0.00 0.00 0.00 75 1008.3
20260503201904 50 210 6.0 20.0 0.00 0.00 0.00 75 1008.3
20260503201803 50 208 7.0 20.0 0.00 0.00 0.00 75 1008.4
20260503201703 50 208 7.0 20.0 0.00 0.00 0.00 75 1008.3
20260503201603 50 211 7.0 20.0 0.00 0.00 0.00 75 1008.3
20260503201503 50 212 7.0 20.0 0.00 0.00 0.00 76 1008.3
20260503201424 50 211 7.0 20.0 0.00 0.00 0.00 76 1008.3
20260503201324 50 210 7.0 20.0 0.00 0.00 0.00 76 1008.3
20260503201203 50 207 7.0 20.0 0.00 0.00 0.00 76 1008.4
20260503201103 50 205 8.0 20.0 0.00 0.00 0.00 76 1008.4
20260503201003 50 205 8.0 19.0 0.00 0.00 0.00 75 1008.4
20260503200924 50 210 8.0 18.0 0.00 0.00 0.00 76 1008.4
20260503200803 50 211 7.0 15.0 0.00 0.00 0.00 76 1008.3
20260503200724 50 213 7.0 15.0 0.00 0.00 0.00 76 1008.3
20260503200624 50 216 7.0 15.0 0.00 0.00 0.00 76 1008.5
20260503200503 50 217 7.0 15.0 0.00 0.00 0.00 76 1008.5
20260503200403 50 218 7.0 14.0 0.00 0.00 0.00 76 1008.5
20260503200303 50 221 7.0 20.0 0.00 0.00 0.00 76 1008.5
20260503200224 50 219 7.0 20.0 0.00 0.00 0.00 76 1008.5
20260503200124 50 221 7.0 20.0 0.00 0.00 0.00 76 1008.5
20260503200003 50 219 7.0 20.0 0.00 0.00 0.00 76 1008.6
20260503195903 50 216 7.0 20.0 0.00 0.00 0.00 76 1008.5
20260503195803 50 217 6.0 20.0 0.00 0.00 0.00 76 1008.5
20260503195703 50 215 6.0 20.0 0.00 0.00 0.00 76 1008.6
20260503195604 50 213 6.0 20.0 0.00 0.00 0.00 76 1008.6
20260503195504 50 209 7.0 20.0 0.00 0.00 0.00 76 1008.5
20260503195403 50 207 6.0 20.0 0.00 0.00 0.00 77 1008.5
20260503195304 50 205 6.0 18.0 0.00 0.00 0.00 77 1008.5
20260503195203 50 209 7.0 18.0 0.00 0.00 0.00 77 1008.6
20260503195103 50 214 6.0 18.0 0.00 0.00 0.00 77 1008.6
20260503195006 50 218 6.0 18.0 0.00 0.00 0.00 77 1008.5
20260503194903 50 221 6.0 18.0 0.00 0.00 0.00 77 1008.5
20260503194803 50 223 6.0 18.0 0.00 0.00 0.00 78 1008.5
20260503194707 49 222 6.0 17.0 0.00 0.00 0.00 77 1008.5
20260503194631 49 223 6.0 17.0 0.00 0.00 0.00 77 1008.5
20260503194524 49 226 6.0 17.0 0.00 0.00 0.00 78 1008.6
20260503194428 49 231 6.0 16.0 0.00 0.00 0.00 78 1008.5
20260503194307 49 233 7.0 16.0 0.00 0.00 0.00 78 1008.5
20260503194207 49 232 7.0 16.0 0.00 0.00 0.00 79 1008.5
20260503194106 49 227 7.0 15.0 0.00 0.00 0.00 79 1008.7
20260503194006 49 227 7.0 15.0 0.00 0.00 0.00 79 1008.7
20260503193907 49 226 7.0 16.0 0.00 0.00 0.00 79 1008.7
20260503193807 49 223 7.0 16.0 0.00 0.00 0.00 79 1008.7
20260503193707 49 223 7.0 16.0 0.00 0.00 0.00 79 1008.7
20260503193628 49 222 7.0 17.0 0.00 0.00 0.00 79 1008.7
20260503193507 49 221 8.0 17.0 0.00 0.00 0.00 79 1008.7
20260503193428 49 218 8.0 19.0 0.00 0.00 0.00 79 1008.8
20260503193306 49 215 8.0 21.0 0.00 0.00 0.00 79 1008.8
20260503193206 49 213 8.0 21.0 0.00 0.00 0.00 79 1008.8
20260503193106 48 214 8.0 21.0 0.00 0.00 0.00 79 1008.8
20260503193007 48 216 8.0 21.0 0.00 0.00 0.00 79 1008.8
20260503192906 48 214 8.0 21.0 0.00 0.00 0.00 79 1008.7
20260503192807 48 216 8.0 21.0 0.00 0.00 0.00 79 1008.8
20260503192707 48 214 8.0 21.0 0.00 0.00 0.00 79 1008.8
20260503192606 48 216 8.0 21.0 0.00 0.00 0.00 79 1008.7
20260503192506 48 216 7.0 21.0 0.00 0.00 0.00 79 1008.7
20260503192428 48 217 7.0 21.0 0.00 0.00 0.00 79 1008.8
20260503192306 48 220 7.0 17.0 0.00 0.00 0.00 79 1008.7
20260503192206 49 220 7.0 17.0 0.00 0.00 0.00 79 1008.7
20260503192107 49 215 7.0 17.0 0.00 0.00 0.00 79 1008.8
20260503192006 49 215 7.0 17.0 0.00 0.00 0.00 79 1008.8
20260503191907 49 215 7.0 17.0 0.00 0.00 0.00 78 1008.8
20260503191807 49 213 7.0 17.0 0.00 0.00 0.00 78 1008.9
20260503191707 49 213 7.0 17.0 0.00 0.00 0.00 78 1008.9
20260503191628 49 211 7.0 17.0 0.00 0.00 0.00 78 1008.9
20260503191528 49 212 7.0 17.0 0.00 0.00 0.00 77 1008.9
20260503191406 49 210 8.0 17.0 0.00 0.00 0.00 77 1008.8
20260503191306 49 210 8.0 17.0 0.00 0.00 0.00 77 1008.8
20260503191207 49 219 8.0 22.0 0.00 0.00 0.00 77 1008.8
20260503191106 49 223 8.0 22.0 0.00 0.00 0.00 77 1008.9
20260503191006 49 220 8.0 22.0 0.00 0.00 0.00 76 1009.0
20260503190906 49 221 8.0 22.0 0.00 0.00 0.00 76 1009.0
20260503190806 50 224 7.0 22.0 0.00 0.00 0.00 76 1009.1
20260503190727 50 224 7.0 22.0 0.00 0.00 0.00 76 1009.1
20260503190627 50 231 7.0 22.0 0.00 0.00 0.00 76 1009.1
20260503190506 50 231 7.0 22.0 0.00 0.00 0.00 76 1009.1
20260503190406 50 236 8.0 22.0 0.00 0.00 0.00 76 1009.1
20260503190306 50 234 7.0 22.0 0.00 0.00 0.00 75 1009.2
20260503190207 50 230 7.0 20.0 0.00 0.00 0.00 75 1009.2
20260503190106 50 229 7.0 20.0 0.00 0.00 0.00 75 1009.1
20260503190007 50 229 7.0 20.0 0.00 0.00 0.00 75 1009.0
20260503185927 50 228 7.0 20.0 0.00 0.00 0.00 74 1009.0
20260503185828 50 230 7.0 20.0 0.00 0.00 0.00 74 1009.1
20260503185727 51 230 7.0 20.0 0.00 0.00 0.00 73 1009.1
20260503185628 51 229 7.0 20.0 0.00 0.00 0.00 72 1009.1
20260503185506 51 227 8.0 16.0 0.00 0.00 0.00 71 1009.1
20260503185406 51 225 7.0 16.0 0.00 0.00 0.00 71 1009.1
20260503185307 52 224 7.0 16.0 0.00 0.00 0.00 70 1009.1
20260503185207 52 227 8.0 16.0 0.00 0.00 0.00 70 1009.2
20260503185107 52 227 8.0 17.0 0.00 0.00 0.00 70 1009.2
20260503185006 52 232 8.0 17.0 0.00 0.00 0.00 70 1009.1
20260503184906 52 232 8.0 17.0 0.00 0.00 0.00 69 1009.1
20260503184806 52 233 8.0 17.0 0.00 0.00 0.00 69 1009.1
20260503184706 52 231 8.0 18.0 0.00 0.00 0.00 68 1009.2
20260503184607 52 230 8.0 18.0 0.00 0.00 0.00 68 1009.2
20260503184506 53 230 8.0 18.0 0.00 0.00 0.00 68 1009.0
20260503184407 53 230 8.0 18.0 0.00 0.00 0.00 67 1009.0
20260503184328 53 230 8.0 18.0 0.00 0.00 0.00 67 1009.1
20260503184207 53 227 8.0 18.0 0.00 0.00 0.00 66 1009.2
20260503184106 53 225 8.0 18.0 0.00 0.00 0.00 66 1009.2
20260503184007 54 220 8.0 18.0 0.00 0.00 0.00 66 1009.2
20260503183927 54 219 8.0 19.0 0.00 0.00 0.00 66 1009.2
20260503183806 54 212 7.0 19.0 0.00 0.00 0.00 65 1009.3
20260503183706 54 210 7.0 19.0 0.00 0.00 0.00 65 1009.2
20260503183606 54 210 7.0 19.0 0.00 0.00 0.00 65 1009.2
20260503183507 54 213 7.0 19.0 0.00 0.00 0.00 65 1009.2
20260503183407 55 216 8.0 23.0 0.00 0.00 0.00 65 1009.2
20260503183306 55 215 8.0 23.0 0.00 0.00 0.00 65 1009.2
20260503183206 55 214 9.0 23.0 0.00 0.00 0.00 65 1009.2
20260503183106 54 218 9.0 23.0 0.00 0.00 0.00 65 1009.2
20260503183006 54 222 9.0 23.0 0.00 0.00 0.00 66 1009.4
20260503182906 54 223 9.0 23.0 0.00 0.00 0.00 65 1009.2
20260503182806 54 222 9.0 23.0 0.00 0.00 0.00 65 1009.2
20260503182706 54 224 9.0 23.0 0.00 0.00 0.00 65 1009.3
20260503182607 54 224 10.0 23.0 0.00 0.00 0.00 64 1009.3
20260503182527 54 227 10.0 23.0 0.00 0.00 0.00 64 1009.3
20260503182406 54 222 9.0 22.0 0.00 0.00 0.00 63 1009.4
20260503182307 55 224 9.0 22.0 0.00 0.00 0.00 63 1009.4
20260503182206 55 224 8.0 20.0 0.00 0.00 0.00 63 1009.4
20260503182106 55 222 8.0 20.0 0.00 0.00 0.00 64 1009.4
20260503182006 55 220 8.0 20.0 0.00 0.00 0.00 64 1009.4
20260503181906 55 225 9.0 20.0 0.00 0.00 0.00 63 1009.4
20260503181806 55 227 9.0 23.0 0.00 0.00 0.00 63 1009.4
20260503181706 55 227 9.0 23.0 0.00 0.00 0.00 63 1009.3
20260503181606 55 226 8.0 23.0 0.00 0.00 0.00 62 1009.4
20260503181527 55 223 8.0 23.0 0.00 0.00 0.00 63 1009.4
20260503181406 55 223 8.0 23.0 0.00 0.00 0.00 62 1009.7
20260503181327 55 221 8.0 23.0 0.00 0.00 0.00 62 1009.7
20260503181206 55 225 9.0 23.0 0.00 0.00 0.00 62 1009.4
20260503181106 55 226 9.0 23.0 0.00 0.00 0.00 61 1009.4
20260503181007 55 226 9.0 23.0 0.00 0.00 0.00 62 1009.4
20260503180906 55 223 8.0 23.0 0.00 0.00 0.00 62 1009.5
20260503180806 55 222 9.0 23.0 0.00 0.00 0.00 62 1009.5
20260503180707 55 226 9.0 23.0 0.00 0.00 0.00 62 1009.5
20260503180606 55 231 9.0 23.0 0.00 0.00 0.00 62 1009.5
20260503180506 55 232 9.0 23.0 0.00 0.00 0.00 61 1009.5
20260503180427 55 232 9.0 23.0 0.00 0.00 0.00 61 1009.5
20260503180306 55 232 8.0 23.0 0.00 0.00 0.00 60 1009.6
20260503180206 55 230 8.0 23.0 0.00 0.00 0.00 61 1009.6
20260503180106 55 226 7.0 23.0 0.00 0.00 0.00 62 1009.5
20260503180006 55 227 8.0 23.0 0.00 0.00 0.00 61 1009.5
20260503175906 55 230 8.0 23.0 0.00 0.00 0.00 60 1009.6
20260503175806 56 234 7.0 22.0 0.00 0.00 0.00 60 1009.6
20260503175706 56 229 7.0 18.0 0.00 0.00 0.00 60 1009.6
20260503175627 56 228 7.0 18.0 0.00 0.00 0.00 60 1009.6
20260503175506 56 227 8.0 19.0 0.00 0.00 0.00 61 1009.6
20260503175406 56 226 8.0 19.0 0.00 0.00 0.00 61 1009.6
20260503175306 55 225 8.0 19.0 0.00 0.00 0.00 61 1009.6
20260503175206 55 227 8.0 19.0 0.00 0.00 0.00 62 1009.6
20260503175106 55 228 8.0 19.0 0.00 0.00 0.00 61 1009.6
20260503175006 55 227 8.0 19.0 0.00 0.00 0.00 62 1009.7
20260503174906 55 226 8.0 19.0 0.00 0.00 0.00 62 1009.7
20260503174806 55 223 8.0 19.0 0.00 0.00 0.00 62 1009.7
20260503174707 55 222 8.0 19.0 0.00 0.00 0.00 62 1009.7
20260503174607 54 221 8.0 19.0 0.00 0.00 0.00 62 1009.7
20260503174506 54 219 8.0 17.0 0.00 0.00 0.00 63 1009.7
20260503174406 54 220 8.0 17.0 0.00 0.00 0.00 63 1009.7
20260503174306 54 220 8.0 17.0 0.00 0.00 0.00 63 1009.7
20260503174206 54 215 8.0 17.0 0.00 0.00 0.00 63 1009.7
20260503174106 54 219 8.0 17.0 0.00 0.00 0.00 63 1009.7
20260503174006 54 218 8.0 17.0 0.00 0.00 0.00 63 1009.8
20260503173906 54 216 8.0 17.0 0.00 0.00 0.00 63 1009.8
20260503173806 54 214 7.0 17.0 0.00 0.00 0.00 63 1009.7
20260503173706 54 215 7.0 16.0 0.00 0.00 0.00 63 1009.7
20260503173606 54 212 8.0 16.0 0.00 0.00 0.00 63 1009.7
20260503173527 54 216 8.0 21.0 0.00 0.00 0.00 63 1009.8
20260503173406 54 222 8.0 21.0 0.00 0.00 0.00 63 1009.8
20260503173306 54 226 7.0 21.0 0.00 0.00 0.00 63 1009.8
20260503173206 54 231 7.0 21.0 0.00 0.00 0.00 63 1009.8
20260503173106 54 229 7.0 21.0 0.00 0.00 0.00 63 1009.8
20260503173006 54 230 8.0 21.0 0.00 0.00 0.00 63 1009.8
20260503172906 54 230 7.0 21.0 0.00 0.00 0.00 63 1009.8
20260503172806 54 234 8.0 21.0 0.00 0.00 0.00 63 1009.9
20260503172706 54 236 8.0 21.0 0.00 0.00 0.00 63 1009.9
20260503172627 54 237 8.0 21.0 0.00 0.00 0.00 63 1009.9
20260503172506 54 233 8.0 18.0 0.00 0.00 0.00 64 1009.9
20260503172406 54 232 8.0 18.0 0.00 0.00 0.00 64 1009.9
20260503172327 53 228 8.0 18.0 0.00 0.00 0.00 64 1010.0
20260503172206 53 227 8.0 18.0 0.00 0.00 0.00 64 1009.9
20260503172106 53 228 8.0 18.0 0.00 0.00 0.00 64 1009.9
20260503172006 53 230 8.0 18.0 0.00 0.00 0.00 64 1009.9
20260503171907 53 232 9.0 18.0 0.00 0.00 0.00 64 1009.9
20260503171806 53 231 8.0 18.0 0.00 0.00 0.00 64 1009.9
20260503171706 53 228 8.0 18.0 0.00 0.00 0.00 63 1009.9
20260503171606 53 229 8.0 16.0 0.00 0.00 0.00 64 1009.9
20260503171506 53 228 8.0 16.0 0.00 0.00 0.00 64 1010.0
20260503171406 53 225 8.0 18.0 0.00 0.00 0.00 64 1010.0
20260503171306 53 227 8.0 18.0 0.00 0.00 0.00 64 1010.0
20260503171227 53 227 8.0 18.0 0.00 0.00 0.00 64 1010.2
20260503171106 53 225 8.0 18.0 0.00 0.00 0.00 64 1010.2
20260503171006 53 224 7.0 18.0 0.00 0.00 0.00 63 1010.2
20260503170906 53 223 7.0 18.0 0.00 0.00 0.00 64 1010.2
20260503170807 53 223 7.0 18.0 0.00 0.00 0.00 64 1010.2
20260503170706 53 224 7.0 18.0 0.00 0.00 0.00 64 1010.2
20260503170606 53 226 7.0 18.0 0.00 0.00 0.00 64 1010.2
20260503170506 53 228 6.0 18.0 0.00 0.00 0.00 64 1010.3
20260503170406 53 229 7.0 17.0 0.00 0.00 0.00 65 1010.2
20260503170327 53 229 7.0 17.0 0.00 0.00 0.00 65 1010.2
20260503170206 53 229 6.0 17.0 0.00 0.00 0.00 65 1010.3
20260503170106 52 227 7.0 17.0 0.00 0.00 0.00 66 1010.3
20260503160206 50 221 6.0 15.0 0.00 0.00 0.00 68 1010.4
20260503160106 50 217 6.0 15.0 0.00 0.00 0.00 68 1010.4
20260503151006 50 233 6.0 15.0 0.00 0.00 0.00 66 1011.0
20260503150906 50 230 6.0 15.0 0.00 0.00 0.00 66 1011.0
20260503150806 50 229 6.0 15.0 0.00 0.00 0.00 67 1010.9
20260503150706 50 226 6.0 15.0 0.00 0.00 0.00 67 1010.9
20260503150627 49 228 6.0 15.0 0.00 0.00 0.00 67 1011.0
20260503150506 49 230 6.0 16.0 0.00 0.00 0.00 68 1011.1
20260503150406 49 231 6.0 16.0 0.00 0.00 0.00 68 1011.1
20260503150306 49 236 6.0 16.0 0.00 0.00 0.00 68 1011.0
20260503150206 49 234 7.0 16.0 0.00 0.00 0.00 69 1011.0
20260503150106 49 233 7.0 16.0 0.00 0.00 0.00 69 1011.0
20260503140306 50 236 5.0 14.0 0.00 0.00 0.00 66 1010.6
20260503140206 50 238 6.0 14.0 0.00 0.00 0.00 65 1010.6
20260503140106 50 236 6.0 18.0 0.00 0.00 0.00 65 1010.7
20260503131406 48 246 6.0 14.0 0.00 0.00 0.00 69 1011.5
20260503131305 48 246 6.0 14.0 0.00 0.00 0.00 68 1011.5
20260503131226 48 245 6.0 14.0 0.00 0.00 0.00 68 1011.4
20260503131127 48 244 6.0 14.0 0.00 0.00 0.00 68 1011.4
20260503131006 48 241 6.0 14.0 0.00 0.00 0.00 67 1011.3
20260503130906 48 240 6.0 14.0 0.00 0.00 0.00 67 1011.4
20260503130806 48 240 6.0 14.0 0.00 0.00 0.00 67 1011.4
20260503130706 48 241 7.0 14.0 0.00 0.00 0.00 66 1011.3
20260503130626 48 241 7.0 14.0 0.00 0.00 0.00 66 1011.3
20260503130505 48 239 6.0 12.0 0.00 0.00 0.00 66 1011.3
20260503130426 48 237 6.0 12.0 0.00 0.00 0.00 65 1011.3
20260503130305 48 234 6.0 12.0 0.00 0.00 0.00 65 1011.1
20260503130206 49 231 6.0 12.0 0.00 0.00 0.00 65 1011.2
20260503130106 49 233 6.0 16.0 0.00 0.00 0.00 65 1011.2
20260503120205 48 219 4.0 11.0 0.00 0.00 0.00 66 1011.2
20260503120105 48 221 4.0 11.0 0.00 0.00 0.00 65 1011.2
20260503110805 47 247 4.0 13.0 0.00 0.00 0.00 67 1011.3
20260503110705 47 247 4.0 13.0 0.00 0.00 0.00 67 1011.3
20260503110605 47 245 4.0 13.0 0.00 0.00 0.00 67 1011.3
20260503110506 47 243 5.0 13.0 0.00 0.00 0.00 66 1011.3
20260503110427 47 242 5.0 13.0 0.00 0.00 0.00 66 1011.3
20260503110305 47 242 4.0 13.0 0.00 0.00 0.00 66 1011.2
20260503110205 47 243 5.0 12.0 0.00 0.00 0.00 66 1011.2
20260503110126 47 244 5.0 12.0 0.00 0.00 0.00 66 1011.3
20260503100205 47 249 4.0 12.0 0.00 0.00 0.00 66 1011.1
20260503100105 47 247 4.0 12.0 0.00 0.00 0.00 66 1011.1
20260503090505 47 246 6.0 14.0 0.00 0.00 0.00 66 1011.5
20260503090405 47 244 5.0 14.0 0.00 0.00 0.00 66 1011.5
20260503090305 47 243 6.0 12.0 0.00 0.00 0.00 66 1011.5
20260503090205 47 245 6.0 15.0 0.00 0.00 0.00 66 1011.5
20260503090105 47 244 5.0 15.0 0.00 0.00 0.00 65 1011.5
20260503081605 47 243 5.0 13.0 0.00 0.00 0.00 66 1011.8
20260503081505 47 243 5.0 13.0 0.00 0.00 0.00 66 1011.8
20260503081405 47 242 5.0 13.0 0.00 0.00 0.00 66 1011.8
20260503081305 47 241 5.0 13.0 0.00 0.00 0.00 66 1011.8
20260503081205 47 241 5.0 13.0 0.00 0.00 0.00 67 1011.8
20260503081105 47 244 5.0 11.0 0.00 0.00 0.00 67 1011.8
20260503081026 47 244 5.0 11.0 0.00 0.00 0.00 67 1011.8
20260503080926 47 246 5.0 11.0 0.00 0.00 0.00 68 1011.9
20260503080805 47 245 5.0 11.0 0.00 0.00 0.00 68 1011.8
20260503080705 47 244 5.0 12.0 0.00 0.00 0.00 68 1011.8
20260503080605 47 245 5.0 12.0 0.00 0.00 0.00 68 1011.8
20260503080505 47 242 5.0 12.0 0.00 0.00 0.00 68 1011.8
20260503080426 47 243 5.0 12.0 0.00 0.00 0.00 68 1011.8
20260503080305 47 244 5.0 12.0 0.00 0.00 0.00 68 1011.9
20260503080205 47 242 4.0 12.0 0.00 0.00 0.00 68 1011.8
20260503080105 47 238 4.0 12.0 0.00 0.00 0.00 68 1011.8
20260503072905 46 233 5.0 15.0 0.00 0.00 0.00 70 1012.1
20260503072805 46 231 4.0 15.0 0.00 0.00 0.00 71 1012.1
20260503072727 46 228 4.0 11.0 0.00 0.00 0.00 72 1011.9
20260503072605 46 226 4.0 11.0 0.00 0.00 0.00 72 1012.1
20260503072505 46 228 4.0 11.0 0.00 0.00 0.00 73 1012.1
20260503072405 46 233 4.0 11.0 0.00 0.00 0.00 72 1012.2
20260503072326 46 237 4.0 11.0 0.00 0.00 0.00 72 1012.2
20260503072205 46 238 4.0 11.0 0.00 0.00 0.00 72 1012.1
20260503072126 46 233 4.0 11.0 0.00 0.00 0.00 72 1012.1
20260503072005 46 223 3.0 8.0 0.00 0.00 0.00 72 1012.0
20260503071904 46 222 3.0 8.0 0.00 0.00 0.00 72 1012.0
20260503071805 46 220 4.0 8.0 0.00 0.00 0.00 72 1012.0
20260503071705 46 221 3.0 8.0 0.00 0.00 0.00 72 1012.1
20260503071626 46 222 3.0 8.0 0.00 0.00 0.00 71 1012.1
20260503071505 46 217 3.0 8.0 0.00 0.00 0.00 71 1012.2
20260503071405 46 215 3.0 10.0 0.00 0.00 0.00 71 1012.1
20260503071305 46 216 3.0 10.0 0.00 0.00 0.00 72 1012.0
20260503071205 46 212 3.0 10.0 0.00 0.00 0.00 72 1012.0
20260503071104 46 213 3.0 10.0 0.00 0.00 0.00 72 1012.2
20260503071004 46 215 3.0 10.0 0.00 0.00 0.00 72 1012.2
20260503070905 46 216 3.0 10.0 0.00 0.00 0.00 72 1012.1
20260503070805 46 221 4.0 10.0 0.00 0.00 0.00 71 1012.2
20260503070705 46 225 4.0 10.0 0.00 0.00 0.00 71 1012.2
20260503070626 46 227 4.0 10.0 0.00 0.00 0.00 71 1012.2
20260503070505 46 227 3.0 10.0 0.00 0.00 0.00 71 1012.2
20260503070405 46 225 3.0 9.0 0.00 0.00 0.00 71 1012.1
20260503070304 46 223 3.0 8.0 0.00 0.00 0.00 71 1012.2
20260503070205 46 223 3.0 8.0 0.00 0.00 0.00 72 1012.2
20260503070126 46 225 3.0 8.0 0.00 0.00 0.00 72 1012.3
20260503060326 42 191 1.0 7.0 0.00 0.00 0.00 68 1013.0
20260503060205 42 190 1.0 7.0 0.00 0.00 0.00 69 1013.1
20260503060105 42 193 1.0 7.0 0.00 0.00 0.00 69 1013.1
20260503055105 40 0 0.0 4.0 0.00 0.00 0.00 69 1013.2
20260503055025 40 0 0.0 4.0 0.00 0.00 0.00 69 1013.2
20260503054904 40 0 0.0 4.0 0.00 0.00 0.00 70 1013.2
20260503054804 40 0 0.0 4.0 0.00 0.00 0.00 70 1013.2
20260503054704 40 0 0.0 4.0 0.00 0.00 0.00 70 1013.2
20260503054605 40 0 0.0 4.0 0.00 0.00 0.00 70 1013.3
20260503054505 40 0 0.0 4.0 0.00 0.00 0.00 70 1013.3
20260503054405 40 0 0.0 3.0 0.00 0.00 0.00 71 1013.2
20260503054304 40 0 0.0 2.0 0.00 0.00 0.00 71 1013.3
20260503054204 40 0 0.0 2.0 0.00 0.00 0.00 71 1013.3
20260503054125 40 0 0.0 2.0 0.00 0.00 0.00 71 1013.3
20260503054004 40 0 0.0 2.0 0.00 0.00 0.00 72 1013.3
20260503053904 40 0 0.0 1.0 0.00 0.00 0.00 72 1013.3
20260503053805 40 0 0.0 1.0 0.00 0.00 0.00 72 1013.4
20260503053705 40 0 0.0 1.0 0.00 0.00 0.00 72 1013.4
20260503053605 40 0 0.0 1.0 0.00 0.00 0.00 72 1013.4
20260503053505 40 0 0.0 1.0 0.00 0.00 0.00 72 1013.4
20260503053405 40 0 0.0 1.0 0.00 0.00 0.00 72 1013.4
20260503053304 40 0 0.0 1.0 0.00 0.00 0.00 73 1013.4
20260503053226 40 0 0.0 1.0 0.00 0.00 0.00 73 1013.4
20260503053104 40 0 0.0 1.0 0.00 0.00 0.00 73 1013.4
20260503053004 40 0 0.0 1.0 0.00 0.00 0.00 73 1013.4
20260503052905 40 0 0.0 1.0 0.00 0.00 0.00 74 1013.4
20260503052805 40 0 0.0 0.0 0.00 0.00 0.00 74 1013.4
20260503052726 40 0 0.0 0.0 0.00 0.00 0.00 74 1013.4
20260503052605 40 0 0.0 1.0 0.00 0.00 0.00 74 1013.5
20260503052504 40 0 0.0 1.0 0.00 0.00 0.00 74 1013.5
20260503052404 40 0 0.0 1.0 0.00 0.00 0.00 75 1013.5
20260503052305 40 0 0.0 1.0 0.00 0.00 0.00 75 1013.5
20260503052204 40 0 0.0 1.0 0.00 0.00 0.00 75 1013.5
20260503052125 40 0 0.0 1.0 0.00 0.00 0.00 75 1013.5
20260503052005 40 0 0.0 1.0 0.00 0.00 0.00 75 1013.6
20260503051905 40 0 0.0 1.0 0.00 0.00 0.00 75 1013.6
20260503051805 40 0 0.0 1.0 0.00 0.00 0.00 76 1013.6
20260503051704 40 0 0.0 0.0 0.00 0.00 0.00 76 1013.6
20260503051604 40 0 0.0 0.0 0.00 0.00 0.00 76 1013.6
20260503051505 40 0 0.0 1.0 0.00 0.00 0.00 76 1013.6
20260503051405 40 0 0.0 1.0 0.00 0.00 0.00 76 1013.6
20260503051325 40 0 0.0 1.0 0.00 0.00 0.00 76 1013.6
20260503051226 40 0 0.0 1.0 0.00 0.00 0.00 76 1013.6
20260503051105 40 0 0.0 1.0 0.00 0.00 0.00 76 1013.6
20260503051005 40 0 0.0 1.0 0.00 0.00 0.00 77 1013.6
20260503050905 40 0 0.0 1.0 0.00 0.00 0.00 77 1013.6
20260503050804 40 0 0.0 1.0 0.00 0.00 0.00 77 1013.6
20260503050705 40 0 0.0 1.0 0.00 0.00 0.00 77 1013.7
20260503050605 40 0 0.0 1.0 0.00 0.00 0.00 77 1013.7
20260503050504 40 0 0.0 1.0 0.00 0.00 0.00 77 1013.7
20260503050404 40 0 0.0 1.0 0.00 0.00 0.00 77 1013.7
20260503050304 40 0 0.0 1.0 0.00 0.00 0.00 77 1013.7
20260503050204 40 0 0.0 1.0 0.00 0.00 0.00 78 1013.7
20260503050105 40 0 0.0 1.0 0.00 0.00 0.00 78 1013.7
20260503050005 40 0 0.0 1.0 0.00 0.00 0.00 78 1013.7
20260503045905 40 0 0.0 0.0 0.00 0.00 0.00 78 1013.8
20260503045805 40 0 0.0 0.0 0.00 0.00 0.00 78 1013.8
20260503045705 40 0 0.0 1.0 0.00 0.00 0.00 78 1013.8
20260503045605 40 0 0.0 1.0 0.00 0.00 0.00 78 1013.8
20260503045525 40 0 0.0 1.0 0.00 0.00 0.00 78 1013.8
20260503045404 40 0 0.0 1.0 0.00 0.00 0.00 78 1013.8
20260503045325 40 0 0.0 1.0 0.00 0.00 0.00 78 1013.8
20260503045205 40 0 0.0 1.0 0.00 0.00 0.00 78 1013.8
20260503045104 40 0 0.0 1.0 0.00 0.00 0.00 78 1013.8
20260503045005 40 0 0.0 1.0 0.00 0.00 0.00 78 1013.8
20260503044926 40 0 0.0 1.0 0.00 0.00 0.00 78 1013.8
20260503044804 40 0 0.0 1.0 0.00 0.00 0.00 78 1013.8
20260503044705 40 0 0.0 0.0 0.00 0.00 0.00 78 1013.9
20260503044604 40 0 0.0 1.0 0.00 0.00 0.00 78 1013.9
20260503044504 40 0 0.0 1.0 0.00 0.00 0.00 78 1013.9
20260503044404 40 0 0.0 1.0 0.00 0.00 0.00 78 1013.8
20260503044304 40 0 0.0 1.0 0.00 0.00 0.00 78 1013.8
20260503044205 40 0 0.0 1.0 0.00 0.00 0.00 78 1013.9
20260503044126 40 0 0.0 1.0 0.00 0.00 0.00 78 1013.9
20260503044005 40 0 0.0 1.0 0.00 0.00 0.00 78 1013.9
20260503043905 40 0 0.0 1.0 0.00 0.00 0.00 78 1013.9
20260503043804 40 0 0.0 1.0 0.00 0.00 0.00 78 1013.9
20260503043705 40 0 0.0 1.0 0.00 0.00 0.00 78 1014.0
20260503043605 40 0 0.0 0.0 0.00 0.00 0.00 78 1014.0
20260503043525 40 0 0.0 0.0 0.00 0.00 0.00 78 1014.0
20260503043405 40 0 0.0 0.0 0.00 0.00 0.00 78 1014.1
20260503043326 40 0 0.0 0.0 0.00 0.00 0.00 78 1014.1
20260503043204 40 0 0.0 0.0 0.00 0.00 0.00 78 1014.0
20260503043104 40 0 0.0 0.0 0.00 0.00 0.00 78 1014.1
20260503043004 40 0 0.0 0.0 0.00 0.00 0.00 79 1014.1
20260503042904 40 0 0.0 1.0 0.00 0.00 0.00 78 1014.1
20260503042805 41 0 0.0 1.0 0.00 0.00 0.00 78 1014.1
20260503042704 41 0 0.0 1.0 0.00 0.00 0.00 78 1014.1
20260503042604 41 0 0.0 1.0 0.00 0.00 0.00 78 1014.1
20260503042504 41 0 0.0 1.0 0.00 0.00 0.00 78 1014.1
20260503042404 41 0 0.0 1.0 0.00 0.00 0.00 78 1014.1
20260503042325 41 0 0.0 1.0 0.00 0.00 0.00 78 1014.1
20260503042226 41 0 0.0 1.0 0.00 0.00 0.00 78 1014.1
20260503042104 41 0 0.0 1.0 0.00 0.00 0.00 78 1014.2
20260503042025 41 0 0.0 1.0 0.00 0.00 0.00 78 1014.2
20260503041904 41 0 0.0 0.0 0.00 0.00 0.00 78 1014.2
20260503041804 41 0 0.0 0.0 0.00 0.00 0.00 78 1014.2
20260503041704 41 0 0.0 0.0 0.00 0.00 0.00 78 1014.2
20260503041605 41 0 0.0 0.0 0.00 0.00 0.00 79 1014.2
20260503041504 41 0 0.0 0.0 0.00 0.00 0.00 78 1014.2
20260503041404 41 0 0.0 1.0 0.00 0.00 0.00 78 1014.2
20260503041304 41 0 0.0 1.0 0.00 0.00 0.00 78 1014.3
20260503041204 41 0 0.0 1.0 0.00 0.00 0.00 78 1014.3
20260503041104 41 0 0.0 1.0 0.00 0.00 0.00 78 1014.2
20260503041004 41 0 0.0 1.0 0.00 0.00 0.00 78 1014.3
20260503040904 41 0 0.0 1.0 0.00 0.00 0.00 78 1014.3
20260503040804 41 0 0.0 1.0 0.00 0.00 0.00 78 1014.3
20260503040726 41 0 0.0 1.0 0.00 0.00 0.00 78 1014.3
20260503040625 40 0 0.0 1.0 0.00 0.00 0.00 78 1014.3
20260503040504 40 0 0.0 1.0 0.00 0.00 0.00 78 1014.3
20260503040425 40 0 0.0 1.0 0.00 0.00 0.00 78 1014.3
20260503040304 40 0 0.0 1.0 0.00 0.00 0.00 78 1014.3
20260503040204 40 0 0.0 1.0 0.00 0.00 0.00 78 1014.3
20260503040104 40 0 0.0 1.0 0.00 0.00 0.00 78 1014.3
20260503040006 40 0 0.0 1.0 0.00 0.00 0.00 78 1014.4
20260503035904 40 0 0.0 1.0 0.00 0.00 0.00 78 1014.4
20260503035805 40 0 0.0 1.0 0.00 0.00 0.00 78 1014.4
20260503035704 40 0 0.0 1.0 0.00 0.00 0.00 77 1014.4
20260503035605 40 0 0.0 1.0 0.00 0.00 0.00 77 1014.5
20260503035504 40 0 0.0 1.0 0.00 0.00 0.00 77 1014.5
20260503035404 40 0 0.0 0.0 0.00 0.00 0.00 77 1014.5
20260503035305 40 0 0.0 0.0 0.00 0.00 0.00 77 1014.4
20260503035204 40 0 0.0 0.0 0.00 0.00 0.00 77 1014.4
20260503035104 40 0 0.0 0.0 0.00 0.00 0.00 77 1014.5
20260503035004 40 0 0.0 0.0 0.00 0.00 0.00 77 1014.5
20260503034904 40 0 0.0 0.0 0.00 0.00 0.00 77 1014.5
20260503034805 40 0 0.0 0.0 0.00 0.00 0.00 77 1014.5
20260503034725 40 0 0.0 0.0 0.00 0.00 0.00 77 1014.5
20260503034604 40 0 0.0 0.0 0.00 0.00 0.00 77 1014.5
20260503034525 40 0 0.0 0.0 0.00 0.00 0.00 77 1014.5
20260503034404 40 0 0.0 0.0 0.00 0.00 0.00 77 1014.6
20260503034304 40 0 0.0 1.0 0.00 0.00 0.00 77 1014.6
20260503034225 40 0 0.0 1.0 0.00 0.00 0.00 77 1014.6
20260503034126 40 0 0.0 1.0 0.00 0.00 0.00 77 1014.6
20260503034004 40 0 0.0 1.0 0.00 0.00 0.00 77 1014.6
20260503033904 40 0 0.0 1.0 0.00 0.00 0.00 77 1014.6
20260503033804 40 0 0.0 1.0 0.00 0.00 0.00 77 1014.7
20260503033704 40 0 0.0 1.0 0.00 0.00 0.00 76 1014.7
20260503033604 40 0 0.0 1.0 0.00 0.00 0.00 76 1014.7
20260503033525 40 0 0.0 1.0 0.00 0.00 0.00 76 1014.7
20260503033404 40 0 0.0 1.0 0.00 0.00 0.00 76 1014.7
20260503033304 41 0 0.0 0.0 0.00 0.00 0.00 76 1014.7
20260503033204 41 0 0.0 0.0 0.00 0.00 0.00 76 1014.7
20260503033104 41 0 0.0 0.0 0.00 0.00 0.00 76 1014.7
20260503033004 41 0 0.0 0.0 0.00 0.00 0.00 76 1014.7
20260503032925 41 0 0.0 0.0 0.00 0.00 0.00 76 1014.7
20260503032804 41 0 0.0 0.0 0.00 0.00 0.00 75 1014.7
20260503032704 41 0 0.0 1.0 0.00 0.00 0.00 75 1014.8
20260503032604 41 0 0.0 1.0 0.00 0.00 0.00 75 1014.8
20260503032504 41 0 0.0 1.0 0.00 0.00 0.00 75 1014.7
20260503032425 41 0 0.0 1.0 0.00 0.00 0.00 75 1014.7
20260503032305 41 0 0.0 1.0 0.00 0.00 0.00 75 1014.7
20260503032205 41 0 0.0 1.0 0.00 0.00 0.00 75 1014.7
20260503032104 41 0 0.0 1.0 0.00 0.00 0.00 75 1014.7
20260503032004 41 0 0.0 1.0 0.00 0.00 0.00 75 1014.7
20260503031904 41 0 0.0 1.0 0.00 0.00 0.00 75 1014.7
20260503031804 41 0 0.0 1.0 0.00 0.00 0.00 74 1014.8
20260503031704 41 0 0.0 0.0 0.00 0.00 0.00 74 1014.8
20260503031625 41 0 0.0 1.0 0.00 0.00 0.00 74 1014.8
20260503031504 41 0 0.0 2.0 0.00 0.00 0.00 74 1014.8
20260503031405 41 0 0.0 2.0 0.00 0.00 0.00 74 1014.8
20260503031304 41 0 0.0 2.0 0.00 0.00 0.00 74 1014.7
20260503031204 41 0 0.0 2.0 0.00 0.00 0.00 73 1014.7
20260503031104 41 0 0.0 2.0 0.00 0.00 0.00 73 1014.7
20260503031004 41 0 0.0 2.0 0.00 0.00 0.00 73 1014.8
20260503030905 41 0 0.0 2.0 0.00 0.00 0.00 73 1014.8
20260503030804 41 0 0.0 2.0 0.00 0.00 0.00 73 1014.8
20260503030704 41 0 0.0 2.0 0.00 0.00 0.00 73 1014.8
20260503030604 41 0 0.0 2.0 0.00 0.00 0.00 73 1014.8
20260503030505 41 0 0.0 1.0 0.00 0.00 0.00 73 1014.9
20260503030404 41 0 0.0 1.0 0.00 0.00 0.00 72 1014.8
20260503030304 41 0 0.0 1.0 0.00 0.00 0.00 72 1014.8
20260503030204 41 0 0.0 1.0 0.00 0.00 0.00 72 1014.8
20260503030104 41 0 0.0 2.0 0.00 0.00 0.00 72 1014.8
20260503030004 41 0 0.0 2.0 0.00 0.00 0.00 72 1014.9
20260503025904 41 0 0.0 2.0 0.00 0.00 0.00 72 1014.9
20260503025804 41 0 0.0 2.0 0.00 0.00 0.00 72 1014.9
20260503025705 41 0 0.0 4.0 0.00 0.00 0.00 72 1015.0
20260503025605 41 0 0.0 4.0 0.00 0.00 0.00 72 1015.0
20260503025504 41 0 0.0 4.0 0.00 0.00 0.00 71 1015.0
20260503025404 41 0 0.0 4.0 0.00 0.00 0.00 71 1015.0
20260503025325 41 0 0.0 4.0 0.00 0.00 0.00 71 1015.0
20260503025204 41 0 0.0 4.0 0.00 0.00 0.00 71 1015.0
20260503025104 41 0 0.0 4.0 0.00 0.00 0.00 71 1015.1
20260503025025 41 0 0.0 4.0 0.00 0.00 0.00 71 1015.1
20260503024904 41 0 0.0 4.0 0.00 0.00 0.00 71 1015.0
20260503024804 41 0 0.0 4.0 0.00 0.00 0.00 71 1015.0
20260503024704 41 0 0.0 2.0 0.00 0.00 0.00 71 1015.1
20260503024604 41 0 0.0 2.0 0.00 0.00 0.00 71 1015.1
20260503024504 41 0 0.0 2.0 0.00 0.00 0.00 71 1015.1
20260503024425 41 0 0.0 2.0 0.00 0.00 0.00 71 1015.2
20260503024304 41 0 0.0 2.0 0.00 0.00 0.00 71 1015.2
20260503024204 41 0 0.0 2.0 0.00 0.00 0.00 71 1015.1
20260503024104 41 0 0.0 2.0 0.00 0.00 0.00 71 1015.2
20260503024004 41 0 0.0 2.0 0.00 0.00 0.00 71 1015.2
20260503023904 41 0 0.0 1.0 0.00 0.00 0.00 71 1015.2
20260503023825 41 0 0.0 1.0 0.00 0.00 0.00 71 1015.2
20260503023704 41 0 0.0 1.0 0.00 0.00 0.00 71 1015.2
20260503023604 41 0 0.0 1.0 0.00 0.00 0.00 71 1015.1
20260503023504 41 0 0.0 1.0 0.00 0.00 0.00 71 1015.1
20260503023404 41 0 0.0 1.0 0.00 0.00 0.00 71 1015.2
20260503023325 41 0 0.0 1.0 0.00 0.00 0.00 71 1015.2
20260503023204 41 0 0.0 1.0 0.00 0.00 0.00 71 1015.2
20260503023104 41 0 0.0 1.0 0.00 0.00 0.00 71 1015.2
20260503023004 40 0 0.0 2.0 0.00 0.00 0.00 71 1015.2
20260503022904 40 0 0.0 2.0 0.00 0.00 0.00 71 1015.1
20260503022804 41 0 0.0 2.0 0.00 0.00 0.00 71 1015.1
20260503022704 41 0 0.0 2.0 0.00 0.00 0.00 71 1015.1
20260503022604 41 0 0.0 2.0 0.00 0.00 0.00 70 1015.1
20260503022504 41 0 0.0 2.0 0.00 0.00 0.00 70 1015.1
20260503022404 41 0 0.0 2.0 0.00 0.00 0.00 71 1015.1
20260503022305 41 0 0.0 2.0 0.00 0.00 0.00 71 1015.1
20260503022204 40 0 0.0 2.0 0.00 0.00 0.00 71 1015.1
20260503022104 40 0 0.0 2.0 0.00 0.00 0.00 71 1015.2
20260503022004 40 0 0.0 1.0 0.00 0.00 0.00 70 1015.2
20260503021925 40 0 0.0 1.0 0.00 0.00 0.00 70 1015.2
20260503021804 40 0 0.0 1.0 0.00 0.00 0.00 70 1015.2
20260503021704 40 0 0.0 1.0 0.00 0.00 0.00 70 1015.2
20260503021604 40 0 0.0 1.0 0.00 0.00 0.00 70 1015.2
20260503021525 40 0 0.0 1.0 0.00 0.00 0.00 70 1015.2
20260503021404 40 0 0.0 1.0 0.00 0.00 0.00 70 1015.2
20260503021304 40 0 0.0 1.0 0.00 0.00 0.00 70 1015.2
20260503021204 40 0 0.0 1.0 0.00 0.00 0.00 70 1015.2
20260503021104 40 0 0.0 1.0 0.00 0.00 0.00 70 1015.2
20260503021004 40 0 0.0 1.0 0.00 0.00 0.00 70 1015.2
20260503020904 40 0 0.0 1.0 0.00 0.00 0.00 70 1015.2
20260503020804 40 0 0.0 1.0 0.00 0.00 0.00 70 1015.2
20260503020704 40 0 0.0 1.0 0.00 0.00 0.00 70 1015.2
20260503020604 40 0 0.0 1.0 0.00 0.00 0.00 70 1015.2
20260503020525 40 0 0.0 1.0 0.00 0.00 0.00 70 1015.2
20260503020404 40 0 0.0 1.0 0.00 0.00 0.00 70 1015.2
20260503020325 40 0 0.0 1.0 0.00 0.00 0.00 70 1015.2
20260503020225 40 0 0.0 1.0 0.00 0.00 0.00 71 1015.2
20260503020105 40 0 0.0 1.0 0.00 0.00 0.00 71 1015.2
20260503020026 41 0 0.0 1.0 0.00 0.00 0.00 71 1015.2
20260503015904 41 0 0.0 1.0 0.00 0.00 0.00 71 1015.2
20260503015804 41 0 0.0 1.0 0.00 0.00 0.00 71 1015.2
20260503015704 41 0 0.0 1.0 0.00 0.00 0.00 71 1015.2
20260503015604 41 0 0.0 1.0 0.00 0.00 0.00 71 1015.2
20260503015504 41 0 0.0 1.0 0.00 0.00 0.00 71 1015.2
20260503015404 41 0 0.0 1.0 0.00 0.00 0.00 71 1015.2
20260503015305 41 0 0.0 1.0 0.00 0.00 0.00 71 1015.2
20260503015204 41 0 0.0 1.0 0.00 0.00 0.00 71 1015.2
20260503015104 41 0 0.0 1.0 0.00 0.00 0.00 71 1015.2
20260503015004 41 0 0.0 1.0 0.00 0.00 0.00 71 1015.2
20260503014904 41 0 0.0 1.0 0.00 0.00 0.00 71 1015.2
20260503014825 41 0 0.0 1.0 0.00 0.00 0.00 71 1015.2
20260503014725 41 0 0.0 1.0 0.00 0.00 0.00 71 1015.2
20260503014604 41 0 0.0 1.0 0.00 0.00 0.00 70 1015.2
20260503014504 41 0 0.0 1.0 0.00 0.00 0.00 70 1015.3
20260503014404 41 0 0.0 2.0 0.00 0.00 0.00 70 1015.2
20260503014325 41 0 0.0 2.0 0.00 0.00 0.00 70 1015.2
20260503014204 41 0 0.0 2.0 0.00 0.00 0.00 70 1015.2
20260503014104 41 0 0.0 2.0 0.00 0.00 0.00 70 1015.2
20260503014004 41 0 0.0 2.0 0.00 0.00 0.00 70 1015.3
20260503013904 41 0 0.0 2.0 0.00 0.00 0.00 70 1015.2
20260503013804 41 0 0.0 2.0 0.00 0.00 0.00 70 1015.2
20260503013704 41 0 0.0 2.0 0.00 0.00 0.00 70 1015.2
20260503013604 41 0 0.0 2.0 0.00 0.00 0.00 70 1015.2
20260503013505 42 0 0.0 2.0 0.00 0.00 0.00 70 1015.2
20260503013404 42 0 0.0 2.0 0.00 0.00 0.00 70 1015.3
20260503013304 42 0 0.0 2.0 0.00 0.00 0.00 70 1015.3
20260503013204 42 0 0.0 2.0 0.00 0.00 0.00 70 1015.3
20260503013104 42 0 0.0 2.0 0.00 0.00 0.00 70 1015.3
20260503013004 42 0 0.0 2.0 0.00 0.00 0.00 70 1015.3
20260503012904 42 0 0.0 2.0 0.00 0.00 0.00 70 1015.3
20260503012804 42 0 0.0 1.0 0.00 0.00 0.00 70 1015.3
20260503012725 42 0 0.0 4.0 0.00 0.00 0.00 70 1015.3
20260503012604 42 0 0.0 4.0 0.00 0.00 0.00 70 1015.3
20260503012504 42 0 0.0 4.0 0.00 0.00 0.00 70 1015.3
20260503012404 42 0 0.0 4.0 0.00 0.00 0.00 70 1015.4
20260503012305 42 0 0.0 4.0 0.00 0.00 0.00 71 1015.4
20260503012204 42 0 0.0 4.0 0.00 0.00 0.00 71 1015.3
20260503012104 42 0 0.0 4.0 0.00 0.00 0.00 71 1015.4
20260503012004 42 0 0.0 4.0 0.00 0.00 0.00 70 1015.4
20260503011904 42 0 0.0 4.0 0.00 0.00 0.00 70 1015.3
20260503011804 42 0 0.0 4.0 0.00 0.00 0.00 70 1015.3
20260503011725 42 0 0.0 4.0 0.00 0.00 0.00 71 1015.3
20260503011604 42 0 0.0 2.0 0.00 0.00 0.00 71 1015.3
20260503011504 42 0 0.0 2.0 0.00 0.00 0.00 71 1015.3
20260503011404 42 0 0.0 2.0 0.00 0.00 0.00 71 1015.3
20260503011325 42 0 0.0 2.0 0.00 0.00 0.00 71 1015.3
20260503011204 42 0 0.0 2.0 0.00 0.00 0.00 71 1015.3
20260503011104 42 0 0.0 2.0 0.00 0.00 0.00 71 1015.3
20260503011004 42 0 0.0 2.0 0.00 0.00 0.00 71 1015.3
20260503010925 42 0 0.0 2.0 0.00 0.00 0.00 71 1015.4
20260503010804 42 0 0.0 2.0 0.00 0.00 0.00 71 1015.3
20260503010704 42 0 0.0 2.0 0.00 0.00 0.00 71 1015.3
20260503010604 42 0 0.0 2.0 0.00 0.00 0.00 70 1015.4
20260503010504 42 0 0.0 2.0 0.00 0.00 0.00 70 1015.4
20260503010404 42 0 0.0 2.0 0.00 0.00 0.00 70 1015.3
20260503010325 42 0 0.0 3.0 0.00 0.00 0.00 70 1015.3
20260503010204 42 0 0.0 3.0 0.00 0.00 0.00 70 1015.3
20260503010104 42 0 0.0 3.0 0.00 0.00 0.00 70 1015.3
20260503010004 42 0 0.0 3.0 0.00 0.00 0.00 70 1015.3
20260503005904 42 0 0.0 3.0 0.00 0.00 0.00 70 1015.3
20260503005804 42 230 1.0 3.0 0.00 0.00 0.00 71 1015.3
20260503005704 42 226 1.0 3.0 0.00 0.00 0.00 70 1015.3
20260503005604 42 227 1.0 3.0 0.00 0.00 0.00 70 1015.3
20260503005525 42 222 1.0 5.0 0.00 0.00 0.00 70 1015.3
20260503005404 42 220 1.0 5.0 0.00 0.00 0.00 71 1015.3
20260503005305 42 230 1.0 5.0 0.00 0.00 0.00 70 1015.3
20260503005204 42 232 2.0 5.0 0.00 0.00 0.00 70 1015.3
20260503005104 42 239 2.0 8.0 0.00 0.00 0.00 70 1015.3
20260503005004 42 240 2.0 8.0 0.00 0.00 0.00 70 1015.3
20260503004925 42 241 2.0 8.0 0.00 0.00 0.00 70 1015.3
20260503004825 42 241 2.0 8.0 0.00 0.00 0.00 70 1015.4
20260503004705 43 242 2.0 8.0 0.00 0.00 0.00 69 1015.4
20260503004604 43 240 2.0 8.0 0.00 0.00 0.00 69 1015.4
20260503004504 43 243 2.0 8.0 0.00 0.00 0.00 69 1015.4
20260503004404 43 242 2.0 8.0 0.00 0.00 0.00 69 1015.4
20260503004304 43 240 2.0 8.0 0.00 0.00 0.00 69 1015.3
20260503004204 43 241 2.0 8.0 0.00 0.00 0.00 68 1015.3
20260503004104 43 234 1.0 6.0 0.00 0.00 0.00 68 1015.3
20260503004004 43 233 1.0 6.0 0.00 0.00 0.00 67 1015.3
20260503003925 43 231 1.0 6.0 0.00 0.00 0.00 67 1015.3
20260503003804 43 233 1.0 6.0 0.00 0.00 0.00 67 1015.3
20260503003704 43 237 1.0 6.0 0.00 0.00 0.00 66 1015.3
20260503003604 43 236 1.0 6.0 0.00 0.00 0.00 66 1015.3
20260503003504 43 234 1.0 6.0 0.00 0.00 0.00 66 1015.4
20260503003404 43 234 1.0 6.0 0.00 0.00 0.00 66 1015.4
20260503003304 43 235 1.0 6.0 0.00 0.00 0.00 65 1015.4
20260503003204 43 232 1.0 4.0 0.00 0.00 0.00 65 1015.4
20260503003104 43 231 1.0 5.0 0.00 0.00 0.00 65 1015.4
20260503003004 43 230 2.0 5.0 0.00 0.00 0.00 66 1015.4
20260503002925 43 231 2.0 5.0 0.00 0.00 0.00 65 1015.4
20260503002825 43 230 2.0 5.0 0.00 0.00 0.00 65 1015.4
20260503002704 44 232 2.0 6.0 0.00 0.00 0.00 64 1015.5
20260503002604 44 237 2.0 6.0 0.00 0.00 0.00 64 1015.5
20260503002505 44 242 2.0 6.0 0.00 0.00 0.00 64 1015.5
20260503002404 44 243 3.0 6.0 0.00 0.00 0.00 64 1015.5
20260503002305 44 244 3.0 6.0 0.00 0.00 0.00 63 1015.5
20260503002204 44 245 3.0 6.0 0.00 0.00 0.00 63 1015.5
20260503002104 44 248 3.0 6.0 0.00 0.00 0.00 63 1015.5
20260503002004 44 249 3.0 6.0 0.00 0.00 0.00 62 1015.4
20260503001925 44 248 3.0 6.0 0.00 0.00 0.00 62 1015.4
20260503001825 44 250 3.0 6.0 0.00 0.00 0.00 62 1015.5
20260503001704 44 246 4.0 8.0 0.00 0.00 0.00 61 1015.4
20260503001604 44 246 3.0 8.0 0.00 0.00 0.00 61 1015.4
20260503001504 44 245 3.0 8.0 0.00 0.00 0.00 61 1015.4
20260503001404 44 246 3.0 8.0 0.00 0.00 0.00 61 1015.5
20260503001304 44 244 3.0 8.0 0.00 0.00 0.00 61 1015.5
20260503001204 44 242 3.0 8.0 0.00 0.00 0.00 61 1015.5
20260503001103 44 239 3.0 8.0 0.00 0.00 0.00 61 1015.5
20260503001004 44 238 3.0 8.0 0.00 0.00 0.00 61 1015.5
20260503000904 44 237 3.0 8.0 0.00 0.00 0.00 60 1015.5
20260503000804 44 238 3.0 8.0 0.00 0.00 0.00 60 1015.5
20260503000725 44 237 3.0 8.0 0.00 0.00 0.00 60 1015.5
20260503000604 44 232 3.0 8.0 0.00 0.00 0.00 59 1015.5
20260503000504 44 227 2.0 8.0 0.00 0.00 0.00 58 1015.5
20260503000404 44 224 2.0 8.0 0.00 0.00 0.00 59 1015.5
20260503000304 44 221 2.0 8.0 0.00 0.00 0.00 59 1015.5
20260503000226 44 224 2.0 8.0 0.00 0.00 0.00 59 1015.5
20260503000103 44 227 2.0 8.0 0.00 0.00 0.00 59 1015.5
20260503000004 45 226 2.0 8.0 0.00 0.00 0.00 59 1015.5
20260502235925 45 224 2.0 8.0 0.00 0.00 0.00 59 1015.6
20260502235825 45 217 2.0 8.0 0.00 0.00 0.00 58 1015.6
20260502235704 45 224 2.0 5.0 0.00 0.00 0.00 59 1015.5
20260502235625 45 230 2.0 7.0 0.00 0.00 0.00 60 1015.5
20260502235504 45 233 2.0 7.0 0.00 0.00 0.00 60 1015.5
20260502235404 45 230 2.0 7.0 0.00 0.00 0.00 60 1015.6
20260502235325 45 229 2.0 7.0 0.00 0.00 0.00 60 1015.6
20260502235204 45 229 2.0 7.0 0.00 0.00 0.00 59 1015.5
20260502235104 45 229 3.0 7.0 0.00 0.00 0.00 58 1015.6
20260502235004 45 233 3.0 7.0 0.00 0.00 0.00 58 1015.6
20260502234925 46 238 3.0 7.0 0.00 0.00 0.00 59 1015.6
20260502234804 46 246 3.0 7.0 0.00 0.00 0.00 58 1015.6
20260502234704 46 246 3.0 7.0 0.00 0.00 0.00 58 1015.6
20260502234604 46 247 3.0 7.0 0.00 0.00 0.00 58 1015.6
20260502234504 46 246 3.0 7.0 0.00 0.00 0.00 58 1015.6
20260502234403 46 248 3.0 8.0 0.00 0.00 0.00 58 1015.6
20260502234325 46 249 3.0 8.0 0.00 0.00 0.00 57 1015.6
20260502234204 46 248 4.0 8.0 0.00 0.00 0.00 57 1015.7
20260502234104 46 246 4.0 8.0 0.00 0.00 0.00 57 1015.7
20260502234004 46 243 4.0 8.0 0.00 0.00 0.00 57 1015.7
20260502233926 46 240 4.0 8.0 0.00 0.00 0.00 57 1015.7
20260502233804 46 233 3.0 8.0 0.00 0.00 0.00 57 1015.7
20260502233704 46 231 3.0 8.0 0.00 0.00 0.00 56 1015.7
20260502233604 46 230 3.0 8.0 0.00 0.00 0.00 56 1015.7
20260502233504 46 226 3.0 9.0 0.00 0.00 0.00 56 1015.7
20260502233403 46 224 3.0 9.0 0.00 0.00 0.00 56 1015.7
20260502233304 46 224 3.0 9.0 0.00 0.00 0.00 55 1015.7
20260502233204 46 227 3.0 9.0 0.00 0.00 0.00 55 1015.7
20260502233104 47 232 3.0 9.0 0.00 0.00 0.00 55 1015.8
20260502233004 47 235 3.0 11.0 0.00 0.00 0.00 55 1015.7
20260502232904 47 240 3.0 11.0 0.00 0.00 0.00 55 1015.7
20260502232804 47 241 3.0 11.0 0.00 0.00 0.00 55 1015.8
20260502232704 47 242 3.0 11.0 0.00 0.00 0.00 54 1015.8
20260502232604 47 241 3.0 11.0 0.00 0.00 0.00 54 1015.8
20260502232504 47 244 3.0 11.0 0.00 0.00 0.00 55 1015.8
20260502232404 46 248 3.0 11.0 0.00 0.00 0.00 53 1015.8
20260502232305 47 247 3.0 11.0 0.00 0.00 0.00 52 1015.8
20260502232204 47 247 4.0 11.0 0.00 0.00 0.00 53 1015.8
20260502232104 47 248 4.0 11.0 0.00 0.00 0.00 53 1015.8
20260502232025 47 249 4.0 11.0 0.00 0.00 0.00 52 1015.8
20260502231904 47 246 3.0 8.0 0.00 0.00 0.00 51 1015.8
20260502231804 47 245 4.0 8.0 0.00 0.00 0.00 51 1015.8
20260502231703 47 245 4.0 8.0 0.00 0.00 0.00 52 1015.8
20260502231624 47 246 4.0 9.0 0.00 0.00 0.00 52 1015.8
20260502231504 47 250 4.0 9.0 0.00 0.00 0.00 52 1015.8
20260502231425 47 250 4.0 9.0 0.00 0.00 0.00 51 1015.8
20260502231304 47 250 4.0 9.0 0.00 0.00 0.00 50 1015.8
20260502231225 47 249 4.0 9.0 0.00 0.00 0.00 49 1015.8
20260502231104 47 248 4.0 9.0 0.00 0.00 0.00 48 1015.8
20260502231003 47 250 4.0 9.0 0.00 0.00 0.00 49 1015.9
20260502230904 47 252 4.0 9.0 0.00 0.00 0.00 50 1015.9
20260502230803 47 252 4.0 9.0 0.00 0.00 0.00 51 1015.9
20260502230725 47 250 4.0 9.0 0.00 0.00 0.00 49 1015.9
20260502230625 47 249 4.0 9.0 0.00 0.00 0.00 48 1015.8
20260502230504 47 248 3.0 9.0 0.00 0.00 0.00 48 1015.9
20260502230425 47 247 3.0 9.0 0.00 0.00 0.00 47 1015.9
20260502230304 47 245 4.0 9.0 0.00 0.00 0.00 46 1015.9
20260502230204 47 248 4.0 11.0 0.00 0.00 0.00 46 1015.9
20260502230104 47 244 4.0 11.0 0.00 0.00 0.00 48 1015.9
20260502230004 47 241 4.0 11.0 0.00 0.00 0.00 49 1015.9
20260502225924 47 238 4.0 11.0 0.00 0.00 0.00 49 1015.9
20260502225825 47 237 4.0 11.0 0.00 0.00 0.00 48 1015.8
20260502225704 47 240 4.0 11.0 0.00 0.00 0.00 48 1015.9
20260502225604 47 240 4.0 11.0 0.00 0.00 0.00 48 1015.9
20260502225504 47 235 4.0 11.0 0.00 0.00 0.00 46 1015.9
20260502225404 47 236 4.0 11.0 0.00 0.00 0.00 45 1016.0
20260502225325 47 235 4.0 11.0 0.00 0.00 0.00 45 1016.0
20260502225203 48 230 3.0 10.0 0.00 0.00 0.00 47 1015.9
20260502225104 48 229 3.0 8.0 0.00 0.00 0.00 49 1015.9
20260502225003 48 229 3.0 8.0 0.00 0.00 0.00 48 1016.0
20260502224904 48 230 3.0 8.0 0.00 0.00 0.00 49 1015.9
20260502224804 48 229 3.0 8.0 0.00 0.00 0.00 49 1015.9
20260502224704 48 226 3.0 7.0 0.00 0.00 0.00 48 1015.9
20260502224604 48 226 3.0 7.0 0.00 0.00 0.00 46 1016.0
20260502224504 48 231 3.0 7.0 0.00 0.00 0.00 46 1016.0
20260502224403 48 228 3.0 7.0 0.00 0.00 0.00 48 1016.0
20260502224304 48 230 3.0 13.0 0.00 0.00 0.00 48 1016.0
20260502224203 48 238 4.0 13.0 0.00 0.00 0.00 48 1016.0
20260502224104 48 245 4.0 13.0 0.00 0.00 0.00 48 1016.1
20260502224004 48 245 4.0 13.0 0.00 0.00 0.00 48 1016.1
20260502223904 48 248 4.0 13.0 0.00 0.00 0.00 50 1016.0
20260502223804 48 246 4.0 13.0 0.00 0.00 0.00 50 1016.0
20260502223704 48 247 4.0 13.0 0.00 0.00 0.00 50 1016.1
20260502223603 47 247 5.0 13.0 0.00 0.00 0.00 50 1016.0
20260502223504 47 248 5.0 13.0 0.00 0.00 0.00 49 1016.0
20260502223403 47 254 5.0 13.0 0.00 0.00 0.00 48 1016.1
20260502223303 47 256 5.0 12.0 0.00 0.00 0.00 47 1016.1
20260502223224 48 256 5.0 12.0 0.00 0.00 0.00 48 1016.1
20260502223104 48 250 4.0 9.0 0.00 0.00 0.00 47 1016.1
20260502223004 48 252 4.0 9.0 0.00 0.00 0.00 48 1016.1
20260502222904 48 249 4.0 9.0 0.00 0.00 0.00 49 1016.1
20260502222805 48 248 4.0 9.0 0.00 0.00 0.00 50 1016.2
20260502222704 48 249 4.0 9.0 0.00 0.00 0.00 50 1016.2
20260502222603 48 250 4.0 9.0 0.00 0.00 0.00 47 1016.1
20260502222503 48 249 4.0 9.0 0.00 0.00 0.00 46 1016.1
20260502222404 48 243 4.0 9.0 0.00 0.00 0.00 45 1016.2
20260502222305 48 241 4.0 9.0 0.00 0.00 0.00 46 1016.1
20260502222203 48 239 3.0 9.0 0.00 0.00 0.00 47 1016.1
20260502222125 48 237 3.0 8.0 0.00 0.00 0.00 48 1016.2
20260502222004 48 239 4.0 10.0 0.00 0.00 0.00 49 1016.2
20260502221904 48 243 4.0 12.0 0.00 0.00 0.00 48 1016.1
20260502221803 48 245 4.0 12.0 0.00 0.00 0.00 48 1016.1
20260502221703 48 245 5.0 12.0 0.00 0.00 0.00 47 1016.1
20260502221604 48 245 4.0 12.0 0.00 0.00 0.00 49 1016.1
20260502221503 48 246 5.0 12.0 0.00 0.00 0.00 49 1016.1
20260502221424 48 248 5.0 12.0 0.00 0.00 0.00 49 1016.1
20260502221303 47 248 5.0 12.0 0.00 0.00 0.00 48 1016.1
20260502221204 47 249 5.0 12.0 0.00 0.00 0.00 46 1016.1
20260502221104 47 249 5.0 12.0 0.00 0.00 0.00 47 1016.2
20260502221004 48 248 4.0 12.0 0.00 0.00 0.00 47 1016.2
20260502220925 48 248 4.0 12.0 0.00 0.00 0.00 48 1016.2
20260502220804 48 251 4.0 10.0 0.00 0.00 0.00 46 1016.2
20260502220704 48 251 4.0 10.0 0.00 0.00 0.00 46 1016.2
20260502220624 48 251 4.0 10.0 0.00 0.00 0.00 45 1016.2
20260502220503 48 249 4.0 10.0 0.00 0.00 0.00 45 1016.2
20260502220424 48 249 4.0 10.0 0.00 0.00 0.00 46 1016.2
20260502220325 48 250 4.0 10.0 0.00 0.00 0.00 47 1016.2
20260502220204 48 249 5.0 11.0 0.00 0.00 0.00 48 1016.2
20260502220104 48 250 5.0 11.0 0.00 0.00 0.00 47 1016.2
20260502220004 48 250 5.0 11.0 0.00 0.00 0.00 47 1016.2
20260502215904 48 247 5.0 11.0 0.00 0.00 0.00 47 1016.2
20260502215804 48 247 5.0 11.0 0.00 0.00 0.00 47 1016.2
20260502215703 48 248 5.0 11.0 0.00 0.00 0.00 48 1016.2
20260502215624 48 250 5.0 11.0 0.00 0.00 0.00 48 1016.3
20260502215524 48 252 5.0 11.0 0.00 0.00 0.00 48 1016.3
20260502215403 48 253 5.0 11.0 0.00 0.00 0.00 49 1016.2
20260502215305 48 254 5.0 11.0 0.00 0.00 0.00 49 1016.2
20260502215204 48 257 4.0 11.0 0.00 0.00 0.00 49 1016.2
20260502215104 48 257 4.0 11.0 0.00 0.00 0.00 49 1016.2
20260502215003 48 259 4.0 8.0 0.00 0.00 0.00 48 1016.2
20260502214924 48 262 4.0 8.0 0.00 0.00 0.00 48 1016.2
20260502214804 48 260 4.0 8.0 0.00 0.00 0.00 46 1016.2
20260502214703 48 259 5.0 8.0 0.00 0.00 0.00 45 1016.2
20260502214603 48 257 5.0 11.0 0.00 0.00 0.00 45 1016.2
20260502214504 48 256 5.0 11.0 0.00 0.00 0.00 46 1016.3
20260502214425 48 255 5.0 11.0 0.00 0.00 0.00 46 1016.3
20260502214304 48 255 6.0 12.0 0.00 0.00 0.00 47 1016.2
20260502214225 48 253 6.0 12.0 0.00 0.00 0.00 46 1016.2
20260502214103 47 253 6.0 12.0 0.00 0.00 0.00 47 1016.2
20260502214004 47 251 6.0 12.0 0.00 0.00 0.00 47 1016.3
20260502213903 47 253 6.0 12.0 0.00 0.00 0.00 44 1016.3
20260502213803 47 253 6.0 12.0 0.00 0.00 0.00 43 1016.3
20260502213703 47 254 5.0 12.0 0.00 0.00 0.00 44 1016.3
20260502213603 47 254 5.0 12.0 0.00 0.00 0.00 44 1016.3
20260502213503 47 255 5.0 12.0 0.00 0.00 0.00 43 1016.3
20260502213425 47 256 5.0 12.0 0.00 0.00 0.00 43 1016.3
20260502213304 48 255 4.0 12.0 0.00 0.00 0.00 44 1016.2
20260502213204 48 255 5.0 12.0 0.00 0.00 0.00 45 1016.3
20260502213103 48 255 5.0 11.0 0.00 0.00 0.00 46 1016.3
20260502213004 48 254 4.0 11.0 0.00 0.00 0.00 46 1016.3
20260502212903 48 251 5.0 11.0 0.00 0.00 0.00 45 1016.3
20260502212803 48 252 5.0 11.0 0.00 0.00 0.00 46 1016.2
20260502212703 48 251 5.0 11.0 0.00 0.00 0.00 46 1016.2
20260502212603 48 250 5.0 11.0 0.00 0.00 0.00 47 1016.2
20260502212504 48 250 5.0 11.0 0.00 0.00 0.00 46 1016.2
20260502212404 48 248 5.0 11.0 0.00 0.00 0.00 46 1016.3
20260502212325 48 248 5.0 11.0 0.00 0.00 0.00 46 1016.3
20260502212204 48 248 5.0 11.0 0.00 0.00 0.00 47 1016.2
20260502212104 47 249 5.0 11.0 0.00 0.00 0.00 47 1016.2
20260502212024 47 250 5.0 11.0 0.00 0.00 0.00 47 1016.2
20260502211903 47 249 5.0 11.0 0.00 0.00 0.00 47 1016.3
20260502211803 48 248 5.0 11.0 0.00 0.00 0.00 46 1016.3
20260502211703 48 248 4.0 11.0 0.00 0.00 0.00 45 1016.2
20260502211603 48 248 4.0 11.0 0.00 0.00 0.00 47 1016.2
20260502211504 48 249 4.0 11.0 0.00 0.00 0.00 47 1016.2
20260502211404 48 250 4.0 11.0 0.00 0.00 0.00 47 1016.2
20260502211304 48 250 4.0 11.0 0.00 0.00 0.00 47 1016.2
20260502211203 48 249 4.0 11.0 0.00 0.00 0.00 47 1016.2
20260502211104 48 248 4.0 11.0 0.00 0.00 0.00 46 1016.2
20260502211025 48 247 4.0 11.0 0.00 0.00 0.00 47 1016.2
20260502210903 48 249 4.0 10.0 0.00 0.00 0.00 49 1016.3
20260502210824 48 250 4.0 10.0 0.00 0.00 0.00 49 1016.3
20260502210703 48 246 4.0 10.0 0.00 0.00 0.00 46 1016.4
20260502210603 48 249 5.0 11.0 0.00 0.00 0.00 45 1016.4
20260502210504 48 247 4.0 11.0 0.00 0.00 0.00 45 1016.4
20260502210404 48 246 4.0 11.0 0.00 0.00 0.00 47 1016.3
20260502210324 48 245 4.0 11.0 0.00 0.00 0.00 47 1016.3
20260502210224 48 247 4.0 11.0 0.00 0.00 0.00 46 1016.4
20260502210103 48 249 4.0 11.0 0.00 0.00 0.00 46 1016.4
20260502210004 48 252 4.0 11.0 0.00 0.00 0.00 48 1016.4
20260502205903 48 256 4.0 11.0 0.00 0.00 0.00 48 1016.4
20260502205803 48 258 4.0 11.0 0.00 0.00 0.00 48 1016.4
20260502205724 48 260 4.0 11.0 0.00 0.00 0.00 48 1016.4
20260502205604 48 260 3.0 8.0 0.00 0.00 0.00 49 1016.4
20260502205524 48 261 3.0 8.0 0.00 0.00 0.00 47 1016.4
20260502205403 48 259 4.0 10.0 0.00 0.00 0.00 48 1016.5
20260502205305 48 261 4.0 10.0 0.00 0.00 0.00 49 1016.4
20260502205204 48 260 4.0 12.0 0.00 0.00 0.00 47 1016.4
20260502205103 48 256 4.0 12.0 0.00 0.00 0.00 49 1016.5
20260502205003 48 256 5.0 12.0 0.00 0.00 0.00 47 1016.5
20260502204903 48 251 5.0 12.0 0.00 0.00 0.00 47 1016.5
20260502204803 48 249 5.0 12.0 0.00 0.00 0.00 48 1016.5
20260502204703 47 248 6.0 12.0 0.00 0.00 0.00 48 1016.5
20260502204603 47 248 6.0 12.0 0.00 0.00 0.00 51 1016.6
20260502204503 47 248 6.0 12.0 0.00 0.00 0.00 51 1016.6
20260502204403 47 247 6.0 12.0 0.00 0.00 0.00 51 1016.6
20260502204303 47 245 6.0 12.0 0.00 0.00 0.00 51 1016.6
20260502204203 47 246 6.0 11.0 0.00 0.00 0.00 50 1016.6
20260502204103 47 249 6.0 11.0 0.00 0.00 0.00 48 1016.6
20260502204024 47 249 6.0 11.0 0.00 0.00 0.00 47 1016.6
20260502203903 48 250 5.0 11.0 0.00 0.00 0.00 50 1016.6
20260502203804 47 250 5.0 11.0 0.00 0.00 0.00 49 1016.7